Weather History for Bolton Field, OH

Change the Weather History Date:

Wednesday, February 13, 2013

  Actual Average Record
Temperature  
Mean Temperature 28 °F -  
Max Temperature 32 °F 39 °F 50 °F (2001)
Min Temperature 25 °F 26 °F - (1997)
Degree Days  
Heating Degree Days 36    
Moisture  
Dew Point 26 °F    
Average Humidity 90    
Maximum Humidity 96    
Minimum Humidity 79    
Precipitation  
Precipitation 0.00 in - - ()
Sea Level Pressure  
Sea Level Pressure 29.84 in    
Wind  
Wind Speed 6 mph (NW)    
Max Wind Speed 9 mph    
Max Gust Speed -    
Visibility 6 miles    
Events Snow    
Averages and records for this station are not official NWS values.
T = Trace of Precipitation, MM = Missing Value Source: NWS Daily Summary

Daily Weather History Graph

Daily Weather History Graph

Search for Another Location

Airport:

Trip Planner

Search our weather history database for the weather conditions in past years. The results will help you decide how hot, cold, wet, or windy it might be!

Date:

Astronomy

Feb. 13, 2013 Rise Set
Actual Time 7:27 AM EST 6:06 PM EST
Civil Twilight 6:59 AM EST 6:34 PM EST
Nautical Twilight 6:27 AM EST 7:06 PM EST
Astronomical Twilight 5:56 AM EST 7:37 PM EST
Moon 8:56 AM EST (2/13) 10:07 PM EST (2/13)
Length of Visible Light 11h 34m
Length of Day
10h 39m
Waxing Crescent, 13% of the Moon is Illuminated
Feb 13
Waxing Crescent
Feb 17
First Quarter
Feb 25
Full
Mar 4
Last Quarter
Mar 11
New

Hourly Weather History & Observations

Time (EST) Temp. Windchill Dew Point Humidity Pressure Visibility Wind Dir Wind Speed Gust Speed Precip Events Conditions
12:15 AM 30.6 °F - 24.8 °F 79% 29.91 in 10.0 mi North - - N/A   Clear
12:35 AM 27.9 °F - 24.1 °F 86% 29.91 in 10.0 mi North - - N/A   Clear
12:55 AM 27.9 °F - 24.4 °F 87% 29.90 in 10.0 mi North - - N/A   Clear
1:15 AM 30.6 °F 23.8 °F 25.2 °F 80% 29.89 in 10.0 mi NNW 6.9 mph - N/A   Mostly Cloudy
1:35 AM 30.7 °F 24.9 °F 25.7 °F 82% 29.88 in 10.0 mi NNW 5.8 mph - N/A   Mostly Cloudy
1:55 AM 30.6 °F 24.7 °F 26.1 °F 83% 29.88 in 10.0 mi NNW 5.8 mph - N/A   Scattered Clouds
2:15 AM 31.1 °F 23.7 °F 27.0 °F 85% 29.88 in 10.0 mi NNW 8.1 mph - N/A   Scattered Clouds
2:35 AM 30.7 °F 24.1 °F 27.0 °F 86% 29.88 in 10.0 mi NNW 6.9 mph - N/A   Scattered Clouds
3:15 AM 29.5 °F 24.5 °F 26.4 °F 88% 29.87 in 7.0 mi NW 4.6 mph - N/A   Scattered Clouds
3:35 AM 29.3 °F - 26.4 °F 89% 29.88 in 7.0 mi Calm Calm - N/A   Scattered Clouds
3:55 AM 28.2 °F 23.1 °F 25.3 °F 89% 29.87 in 7.0 mi NNW 4.6 mph - N/A   Clear
4:15 AM 28.2 °F 23.1 °F 25.7 °F 90% 29.86 in 7.0 mi North 4.6 mph - N/A   Scattered Clouds
4:35 AM 28.9 °F 23.9 °F 26.2 °F 90% 29.86 in 7.0 mi North 4.6 mph - N/A   Scattered Clouds
4:55 AM 28.4 °F 21.2 °F 26.1 °F 91% 29.86 in 7.0 mi NNW 6.9 mph - N/A   Scattered Clouds
5:15 AM 28.4 °F 23.3 °F 26.1 °F 91% 29.85 in 7.0 mi NNW 4.6 mph - N/A   Overcast
5:35 AM 28.2 °F 22.0 °F 25.9 °F 91% 29.84 in 7.0 mi NNW 5.8 mph - N/A   Overcast
5:55 AM 28.2 °F - 26.1 °F 92% 29.84 in 5.0 mi North - - N/A   Overcast
6:15 AM 28.2 °F 19.5 °F 26.2 °F 92% 29.82 in 5.0 mi NNW 9.2 mph - N/A   Overcast
6:35 AM 28.4 °F 19.7 °F 26.2 °F 92% 29.81 in 5.0 mi North 9.2 mph - N/A   Overcast
6:55 AM 28.4 °F - 26.4 °F 92% 29.80 in 5.0 mi North - - N/A   Overcast
7:15 AM 28.4 °F - 26.4 °F 92% 29.79 in 5.0 mi North - - N/A   Overcast
7:50 AM 28.4 °F - 26.6 °F 93% 29.78 in 5.0 mi Calm Calm - N/A   Overcast
8:50 AM 28.4 °F 21.2 °F 26.6 °F 93% 29.79 in 5.0 mi NNW 6.9 mph - N/A   Overcast
9:50 AM 30.2 °F 23.4 °F 26.6 °F 86% 29.81 in 5.0 mi NW 6.9 mph - N/A   Overcast
10:50 AM 30.2 °F 25.4 °F 26.6 °F 86% 29.81 in 5.0 mi NNW 4.6 mph - N/A   Overcast
11:50 AM 30.2 °F 25.4 °F 26.6 °F 86% 29.80 in 2.0 mi WNW 4.6 mph - N/A Snow Light Snow
12:50 PM 30.2 °F 25.4 °F 28.4 °F 93% 29.76 in 2.0 mi WNW 4.6 mph - N/A Snow Light Snow
1:20 PM 30.2 °F 24.3 °F 28.4 °F 93% 29.76 in 4.0 mi WNW 5.8 mph - N/A   Overcast
1:50 PM 30.2 °F 22.6 °F 28.4 °F 93% 29.75 in 4.0 mi WNW 8.1 mph - N/A   Overcast
2:50 PM 32.0 °F 24.8 °F 28.4 °F 87% 29.75 in 5.0 mi NW 8.1 mph - N/A   Overcast
5:58 PM 30.2 °F - 26.6 °F 86% 29.80 in 10.0 mi Calm Calm - N/A   Clear
6:55 PM 28.4 °F - 26.6 °F 93% 29.82 in 10.0 mi Calm Calm - N/A   Clear
8:15 PM 25.9 °F - 24.1 °F 93% 29.85 in 7.0 mi North - - N/A   Clear
8:35 PM 25.7 °F 19.0 °F 23.5 °F 92% 29.85 in 7.0 mi SSW 5.8 mph - N/A   Clear
8:55 PM 25.3 °F - 23.0 °F 91% 29.85 in 7.0 mi North - - N/A   Clear
9:15 PM 26.8 °F - 24.8 °F 92% 29.85 in 5.0 mi North - - N/A   Clear
9:35 PM 27.3 °F - 25.5 °F 93% 29.86 in 5.0 mi North - - N/A   Clear
9:55 PM 27.5 °F 18.6 °F 25.7 °F 93% 29.87 in 5.0 mi SW 9.2 mph - N/A   Clear
10:15 PM 27.0 °F 18.7 °F 25.3 °F 94% 29.87 in 4.0 mi SW 8.1 mph - N/A   Clear
10:35 PM 26.2 °F 18.6 °F 24.8 °F 94% 29.87 in 4.0 mi SW 6.9 mph - N/A   Clear
10:55 PM 26.6 °F 19.1 °F 25.3 °F 95% 29.87 in 4.0 mi SW 6.9 mph - N/A   Clear
11:15 PM 26.1 °F 18.4 °F 24.8 °F 95% 29.87 in 3.0 mi SSW 6.9 mph - N/A   Clear
11:35 PM 25.5 °F - 24.4 °F 96% 29.87 in 3.0 mi North - - N/A   Clear
11:55 PM 25.2 °F 17.3 °F 23.9 °F 95% 29.87 in 3.0 mi SSW 6.9 mph - N/A   Clear